PY2KO-3 Weather Reports


time (UTC)temp
F
wind
direction
speed
knots
gust
knots
rain 1hr
in
rain 24hr
in
rain mn
in
humidity
%
barometer
mb
20260510011909 71 0.0 0.0 0.00 0.00 0.00 89 1019.2
20260510010409 71 0.0 0.0 0.00 0.00 0.00 89 1019.5
20260510004916 71 0.0 0.0 0.00 0.00 0.00 83 1018.5
20260510003409 72 0.0 0.0 0.00 0.00 0.00 84 1018.6
20260510001926 71 0.0 0.0 0.00 0.00 0.00 85 1018.8
20260510000412 71 0.0 0.0 0.00 0.00 0.00 85 1019.0
20260509234911 72 0.0 0.0 0.00 0.00 0.00 82 1018.8
20260509233413 73 0.0 0.0 0.00 0.00 0.00 81 1018.7
20260509231917 72 0.0 0.0 0.00 0.00 0.00 83 1018.6
20260509230409 72 0.0 0.0 0.00 0.00 0.00 83 1018.5
20260509224909 73 0.0 0.0 0.00 0.00 0.00 81 1018.2
20260509223409 72 0.0 0.0 0.00 0.00 0.00 83 1018.2
20260509221910 72 0.0 0.0 0.00 0.00 0.00 80 1018.0
20260509220409 73 0.0 0.0 0.00 0.00 0.00 79 1017.5
20260509214922 74 0.0 0.0 0.00 0.00 0.00 77 1017.4
20260509213411 75 0.0 0.0 0.00 0.00 0.00 76 1016.9
20260509211909 76 0.0 0.0 0.00 0.00 0.00 73 1016.5
20260509210409 77 0.0 0.0 0.00 0.00 0.00 70 1016.2
20260509204909 77 0.0 0.0 0.00 0.00 0.00 71 1016.2
20260509203408 78 0.0 0.0 0.00 0.00 0.00 69 1015.8
20260509201911 79 0.0 0.0 0.00 0.00 0.00 66 1015.5
20260509200411 79 0.0 0.0 0.00 0.00 0.00 66 1015.3
20260509194911 80 0.0 0.0 0.00 0.00 0.00 64 1014.9
20260509193414 78 0.0 0.0 0.00 0.00 0.00 66 1015.1
20260509191909 81 0.0 0.0 0.00 0.00 0.00 62 1014.5
20260509190409 82 0.0 0.0 0.00 0.00 0.00 58 1014.3
20260509184909 83 0.0 0.0 0.00 0.00 0.00 56 1013.9
20260509183418 86 0.0 0.0 0.00 0.00 0.00 52 1013.3
20260509180409 87 0.0 0.0 0.00 0.00 0.00 45 1013.2
20260509174912 87 0.0 0.0 0.00 0.00 0.00 44 1013.3
20260509173410 87 0.0 0.0 0.00 0.00 0.00 43 1013.5
20260509171909 86 0.0 0.0 0.00 0.00 0.00 45 1013.5
20260509170414 86 0.0 0.0 0.00 0.00 0.00 42 1013.7
20260509164911 86 0.0 0.0 0.00 0.00 0.00 43 1013.8
20260509163410 86 0.0 0.0 0.00 0.00 0.00 47 1014.0
20260509161909 86 0.0 0.0 0.00 0.00 0.00 48 1014.1
20260509160413 85 0.0 0.0 0.00 0.00 0.00 47 1014.3
20260509154911 84 0.0 0.0 0.00 0.00 0.00 48 1014.5
20260509151928 85 0.0 0.0 0.00 0.00 0.00 46 1015.1
20260509150409 86 0.0 0.0 0.00 0.00 0.00 46 1015.0
20260509144915 84 0.0 0.0 0.00 0.00 0.00 48 1015.7
20260509143409 84 0.0 0.0 0.00 0.00 0.00 48 1015.7
20260509141909 82 0.0 0.0 0.00 0.00 0.00 50 1016.1
20260509140409 82 0.0 0.0 0.00 0.00 0.00 52 1016.2
20260509134908 82 0.0 0.0 0.00 0.00 0.00 53 1016.3
20260509133411 81 0.0 0.0 0.00 0.00 0.00 53 1016.6
20260509131909 80 0.0 0.0 0.00 0.00 0.00 53 1016.8
20260509130424 80 0.0 0.0 0.00 0.00 0.00 53 1016.9
20260509124909 80 0.0 0.0 0.00 0.00 0.00 53 1016.8
20260509123413 80 0.0 0.0 0.00 0.00 0.00 52 1016.7
20260509121914 79 0.0 0.0 0.00 0.00 0.00 53 1016.8
20260509120409 77 0.0 0.0 0.00 0.00 0.00 54 1016.7
20260509114909 76 0.0 0.0 0.00 0.00 0.00 55 1016.7
20260509113409 75 0.0 0.0 0.00 0.00 0.00 56 1016.2
20260509111910 74 0.0 0.0 0.00 0.00 0.00 58 1016.4
20260509110416 74 0.0 0.0 0.00 0.00 0.00 59 1016.3
20260509104909 74 0.0 0.0 0.00 0.00 0.00 59 1016.0
20260509103409 73 0.0 0.0 0.00 0.00 0.00 60 1015.9
20260509101909 73 0.0 0.0 0.00 0.00 0.00 59 1015.6
20260509100409 73 0.0 0.0 0.00 0.00 0.00 59 1015.4
20260509094917 73 0.0 0.0 0.00 0.00 0.00 60 1015.5
20260509093409 73 0.0 0.0 0.00 0.00 0.00 60 1015.3
20260509091910 73 0.0 0.0 0.00 0.00 0.00 60 1015.1
20260509090409 73 0.0 0.0 0.00 0.00 0.00 61 1015.0
20260509084909 73 0.0 0.0 0.00 0.00 0.00 60 1014.8
20260509083409 73 0.0 0.0 0.00 0.00 0.00 61 1014.6
20260509081909 72 0.0 0.0 0.00 0.00 0.00 62 1014.8
20260509080409 72 0.0 0.0 0.00 0.00 0.00 62 1014.8
20260509074909 72 0.0 0.0 0.00 0.00 0.00 63 1014.8
20260509073409 72 0.0 0.0 0.00 0.00 0.00 64 1014.7
20260509071909 72 0.0 0.0 0.00 0.00 0.00 64 1014.7
20260509070409 72 0.0 0.0 0.00 0.00 0.00 63 1014.7
20260509064909 72 0.0 0.0 0.00 0.00 0.00 65 1014.7
20260509063409 72 0.0 0.0 0.00 0.00 0.00 64 1014.7
20260509061909 72 0.0 0.0 0.00 0.00 0.00 64 1014.8
20260509060409 72 0.0 0.0 0.00 0.00 0.00 63 1014.7
20260509054909 72 0.0 0.0 0.00 0.00 0.00 64 1014.8
20260509053409 72 0.0 0.0 0.00 0.00 0.00 64 1014.8
20260509051909 72 0.0 0.0 0.00 0.00 0.00 64 1014.9
20260509050403 72 0.0 0.0 0.00 0.00 0.00 66 1014.9
20260509044909 70 0.0 0.0 0.00 0.00 0.00 69 1015.1
20260509043416 69 0.0 0.0 0.00 0.00 0.00 76 1015.4
20260509042118 69 0.0 0.0 0.00 0.00 0.00 79 1015.7
20260509040409 69 0.0 0.0 0.00 0.00 0.00 76 1015.3
20260509034909 69 0.0 0.0 0.00 0.00 0.00 75 1015.4
20260509033410 70 0.0 0.0 0.00 0.00 0.00 77 1015.4
20260509031909 70 0.0 0.0 0.00 0.00 0.00 77 1015.3
20260509030409 69 0.0 0.0 0.00 0.00 0.00 78 1015.3
20260509024930 70 0.0 0.0 0.00 0.00 0.00 77 1015.4
20260509023431 70 0.0 0.0 0.00 0.00 0.00 76 1015.2
20260509021935 71 0.0 0.0 0.00 0.00 0.00 74 1015.0
20260509020409 71 0.0 0.0 0.00 0.00 0.00 72 1015.1
20260509014917 70 0.0 0.0 0.00 0.00 0.00 79 1015.5
20260509013423 70 0.0 0.0 0.00 0.00 0.00 79 1015.5